Lid_Strength_Index
3 3 3 3 3 4 4 4 3 4 3 4 4 4 4 4 4 4 4 4 4 3 3 3 3 3 4 8 8 1 1 2 3 2 6 7 8 8 8 7 6 7 7 6 6 6 6
3 3 3 3 4 4 4 4 4 4 4 4 4 4 4 4 4 4 4 4 4 4 4 4 3 2 5 11 5 4 4 5 4 4 4 6 8 7 8 8 8 7 7 6 6 6 6
4 3 3 4 4 4 4 4 4 4 4 4 4 4 4 4 4 4 4 4 4 4 4 4 3 3 6 7 4 4 5 5 4 4 5 4 6 8 8 9 7 7 8 7 7 7 7
3 3 3 4 4 4 4 4 4 4 4 4 5 5 5 5 4 4 4 4 4 4 3 3 3 3 8 4 3 4 4 5 5 5 4 3 4 7 8 7 8 9 9 10 7 7 7
4 4 4 4 4 4 4 4 4 4 4 5 5 5 5 4 4 4 4 4 3 3 3 3 4 5 9 3 6 4 2 5 5 5 3 2 3 6 7 9 11 10 12 11 9 7 7
4 4 4 4 5 4 4 4 4 5 5 5 5 5 5 5 4 4 4 3 3 2 3 2 2 7 6 8 5 5 3 1 3 4 4 4 5 7 8 10 14 13 12 11 10 7 7
4 4 4 4 5 4 4 4 4 5 5 5 5 5 5 5 5 4 5 4 6 6 6 8 8 8 7 5 4 5 4 3 3 4 9 6 8 10 9 8 9 10 11 12 10 8 8
4 4 4 5 5 5 5 5 5 5 5 5 5 6 5 5 5 5 4 7 7 6 10 6 6 6 5 5 9 6 4 6 6 8 7 7 10 7 7 7 8 9 11 11 10 10 10
5 5 5 5 5 5 5 5 5 5 5 5 5 6 5 5 5 5 6 7 3 3 9 7 6 6 5 5 8 7 5 5 7 8 8 9 8 6 7 8 9 9 10 10 11 10 9
5 5 5 5 5 5 5 5 5 5 5 5 5 5 4 4 6 6 6 4 3 3 10 10 8 5 4 5 8 4 4 6 7 9 7 8 7 7 7 9 8 11 7 8 9 10 13
5 5 5 5 5 5 5 5 5 5 5 5 5 4 4 5 6 7 6 4 3 4 17 9 7 2 3 6 5 5 2 5 9 8 8 9 8 9 9 8 7 9 7 8 8 10 10
5 5 5 5 5 5 5 5 5 6 5 5 5 4 4 5 5 5 4 4 4 11 17 11 7 6 6 5 6 4 5 4 5 8 7 7 5 7 8 7 7 6 7 8 9 10 14
6 5 5 5 5 5 5 5 5 6 5 5 4 4 5 4 7 4 4 5 12 15 10 11 9 7 7 7 7 7 7 8 9 12 12 10 8 6 6 9 7 7 9 14 15 15 15
6 6 6 5 5 6 6 5 6 6 5 5 4 5 5 4 4 4 5 9 18 14 12 8 7 7 9 7 8 8 8 9 7 8 10 12 13 9 6 8 9 8 9 13 17 15 14
6 6 6 5 6 6 5 5 6 6 5 5 4 5 5 5 3 3 8 13 14 13 10 9 9 10 10 8 8 9 10 12 8 7 11 11 11 7 6 6 7 9 11 8 11 11 13
6 6 6 6 6 6 5 6 6 5 5 4 6 6 6 3 3 5 9 14 14 10 9 9 12 10 11 9 10 9 11 10 10 7 6 8 12 8 7 6 6 8 7 12 11 17 17
6 7 6 6 6 6 6 6 6 5 4 6 6 8 6 3 4 7 13 12 11 9 8 10 10 10 9 10 9 10 11 8 7 9 7 8 10 10 7 9 10 9 10 9 10 11 15
6 7 7 7 6 6 6 6 5 4 5 7 7 12 6 5 11 10 12 11 9 9 7 9 8 8 9 9 10 9 10 8 6 8 12 9 11 12 10 7 6 7 11 9 13 13 12
6 6 6 7 7 7 6 6 5 5 6 6 10 9 6 7 14 13 11 11 11 10 9 9 9 8 7 10 12 9 9 6 6 7 9 9 13 15 12 9 7 9 9 11 11 11 13
6 6 6 6 7 7 7 6 5 5 6 6 9 13 9 8 10 12 14 14 13 10 10 9 9 8 10 10 8 11 9 7 6 6 6 7 10 12 16 14 10 12 10 9 11 17 15
6 6 5 6 6 7 7 6 5 6 6 7 9 13 11 13 13 13 13 13 14 14 11 9 10 10 12 13 11 10 10 8 7 6 6 8 14 11 11 10 9 10 11 10 12 13 16
5 5 5 6 6 7 7 6 6 6 5 8 11 11 10 12 12 13 13 14 14 13 12 12 12 11 11 13 13 13 10 9 10 7 8 7 13 11 14 10 10 12 10 10 10 10 10
5 5 6 5 6 6 6 6 6 6 7 8 7 8 10 12 13 13 13 13 14 12 11 11 11 11 12 11 9 9 8 8 8 9 9 10 11 12 16 10 11 15 12 10 9 8 9
5 5 5 5 6 5 6 6 6 5 6 6 7 8 12 14 13 13 13 12 12 12 13 11 10 11 10 7 7 7 7 8 7 7 6 10 11 12 15 12 19 10 7 7 8 8 7
5 5 5 5 5 5 6 6 7 6 5 6 6 8 11 14 12 13 12 12 11 11 12 12 10 9 7 9 12 12 11 10 9 7 8 7 10 14 16 15 12 10 8 8 9 9 6
5 5 5 5 5 5 5 6 6 7 6 6 7 6 9 13 13 11 12 12 13 12 12 11 8 7 8 10 12 16 15 12 12 10 7 8 9 13 14 17 18 10 7 5 6 12 6
5 5 5 5 5 5 5 5 6 6 7 6 7 7 9 13 11 11 13 12 11 13 14 11 11 10 9 12 14 15 15 11 13 13 11 12 12 15 14 15 12 7 6 5 13 11 5
5 5 5 5 5 5 5 5 6 6 7 7 7 6 10 12 10 9 9 12 11 12 14 11 12 11 11 13 13 12 12 12 12 10 12 12 13 14 14 16 17 6 6 10 8 6 6
5 5 5 5 5 4 5 5 6 6 6 6 9 6 7 11 10 7 7 7 8 8 9 10 11 11 9 12 11 11 13 12 12 14 7 13 10 12 11 11 6 5 6 5 4 5 5